Coral Electra — PCAG — position and weather

sailwx.info

Track history (hours):
 
Tides and Currents Weather Stations Pressure Air Temp Water Temp Dewpoint Dewpoint Depression Visibility Wind Speed Wind Dir Waves Ship Positions

Coral Electra

Last reported at 2014-Oct-21 03:34 UTC. Time now 2014-Oct-21 03:47 UTC.
Position N 53°27' E 006°50'.

Length 14 m; draft 2 m.

Type: Port tender. MMSI: 244690019.

Date/timePositionNaut miles runAvg speedWind from/ knotsBaromVisibWave heightAir tempDewpointWater temp
2014-Oct-21 03:34N 53°27' E 006°50'0 0.0
2014-Oct-21 02:34N 53°27' E 006°50'0 0.0
2014-Oct-21 01:22N 53°27' E 006°50'0 0.0
2014-Oct-21 00:33N 53°27' E 006°50'0 0.0
2014-Oct-20 23:33N 53°27' E 006°50'0 0.0
2014-Oct-20 22:34N 53°27' E 006°50'0 0.0
2014-Oct-20 21:31N 53°27' E 006°50'0 0.0
2014-Oct-20 20:31N 53°27' E 006°50'0 0.0
2014-Oct-20 19:30N 53°27' E 006°50'0 0.0
2014-Oct-20 18:33N 53°27' E 006°50'0 0.0
2014-Oct-20 17:33N 53°27' E 006°50'0 0.0
2014-Oct-20 16:33N 53°27' E 006°50'0 0.0
2014-Oct-20 15:24N 53°27' E 006°50'0 0.0
2014-Oct-20 14:34N 53°27' E 006°50'0 0.0
2014-Oct-20 13:33N 53°27' E 006°50'0 0.0
2014-Oct-20 12:30N 53°27' E 006°50'0 0.0
2014-Oct-20 11:33N 53°27' E 006°50'0 0.0
2014-Oct-20 10:33N 53°27' E 006°50'0 0.1
2014-Oct-20 09:33N 53°27' E 006°50'9 4.3
2014-Oct-20 07:30N 53°32' E 006°38'1 0.9
2014-Oct-20 06:17N 53°32' E 006°40'810.9
2014-Oct-20 05:33N 53°27' E 006°50'1 0.9
2014-Oct-20 04:33N 53°27' E 006°50'0 0.0
2014-Oct-20 03:30N 53°27' E 006°50'0 0.0
2014-Oct-20 02:33N 53°27' E 006°50'0 0.0
2014-Oct-20 01:33N 53°27' E 006°50'0 0.0
2014-Oct-20 00:33N 53°27' E 006°50'0 0.0
2014-Oct-19 23:33N 53°27' E 006°50'0 0.0
2014-Oct-19 22:33N 53°27' E 006°50'0 0.0
2014-Oct-19 21:33N 53°27' E 006°50'0 0.0
2014-Oct-19 20:27N 53°27' E 006°50'0 0.0
2014-Oct-19 19:33N 53°27' E 006°50'0 0.0
2014-Oct-19 18:30N 53°27' E 006°50'0 0.0
2014-Oct-19 17:30N 53°27' E 006°50'0 0.0
2014-Oct-19 16:33N 53°27' E 006°50'0 0.0
2014-Oct-19 15:33N 53°27' E 006°50'0 0.0
2014-Oct-19 14:30N 53°27' E 006°50'0 0.0
2014-Oct-19 13:33N 53°27' E 006°50'0 0.0
2014-Oct-19 12:27N 53°27' E 006°50'0 0.0
2014-Oct-19 11:33N 53°27' E 006°50'0 0.0
2014-Oct-19 10:33N 53°27' E 006°50'0 0.0
2014-Oct-19 09:33N 53°27' E 006°50'0 0.0
2014-Oct-19 08:33N 53°27' E 006°50'0 0.0
2014-Oct-19 07:33N 53°27' E 006°50'9 7.3
2014-Oct-19 06:20N 53°32' E 006°38'911.4
2014-Oct-19 05:33N 53°27' E 006°50'7 6.1
2014-Oct-19 04:20N 53°34' E 006°45'7 9.2
2014-Oct-19 03:31N 53°27' E 006°50'0 0.0
2014-Oct-19 02:31N 53°27' E 006°50'0 0.0
2014-Oct-19 01:31N 53°27' E 006°50'0 0.0
2014-Oct-19 00:31N 53°27' E 006°50'0 0.3
2014-Oct-18 23:31N 53°27' E 006°49'9 2.6
2014-Oct-18 20:03N 53°33' E 006°39'918.0
2014-Oct-18 19:33N 53°27' E 006°50'7 3.0
2014-Oct-18 17:14N 53°34' E 006°45'2 3.0
2014-Oct-18 16:33N 53°33' E 006°42'8 8.1
2014-Oct-18 15:33N 53°27' E 006°50'3 3.5
2014-Oct-18 14:33N 53°29' E 006°45'3 2.9
2014-Oct-18 13:22N 53°27' E 006°50'0 0.0
2014-Oct-18 12:31N 53°27' E 006°50'0 0.0
2014-Oct-18 11:28N 53°27' E 006°50'0 0.0
2014-Oct-18 10:31N 53°27' E 006°50'0 0.3
2014-Oct-18 09:33N 53°27' E 006°49'7 5.4
2014-Oct-18 08:17N 53°31' E 006°41'7 9.2
2014-Oct-18 07:32N 53°27' E 006°49'5 1.8
2014-Oct-18 04:32N 53°32' E 006°45'5 1.6
2014-Oct-18 01:33N 53°33' E 006°37'7 7.4
2014-Oct-18 00:33N 53°28' E 006°48'7 6.8
2014-Oct-17 23:30N 53°33' E 006°38'3 2.9
2014-Oct-17 22:33N 53°31' E 006°41'3 0.7
2014-Oct-17 17:31N 53°34' E 006°45'0 0.2
2014-Oct-17 16:31N 53°34' E 006°45'4 1.1
2014-Oct-17 12:30N 53°32' E 006°38'4 3.2
2014-Oct-17 11:08N 53°32' E 006°45'6 8.7
2014-Oct-17 10:30N 53°27' E 006°50'6 1.7
2014-Oct-17 07:07N 53°30' E 006°42'4 7.1
2014-Oct-17 06:31N 53°29' E 006°49'4 2.0
2014-Oct-17 04:33N 53°32' E 006°45'6 5.8
2014-Oct-17 03:32N 53°27' E 006°50'9 2.9
2014-Oct-17 00:21N 53°33' E 006°37'0 0.0
2014-Oct-16 23:21N 53°33' E 006°37'0 0.0
2014-Oct-16 22:18N 53°33' E 006°37'3 0.8
2014-Oct-16 18:24N 53°33' E 006°43'1 1.3
2014-Oct-16 17:13N 53°34' E 006°45'3 4.5
2014-Oct-16 16:33N 53°33' E 006°40'9 8.4
2014-Oct-16 15:32N 53°27' E 006°50'0 0.2
2014-Oct-16 14:33N 53°27' E 006°49'9 6.6
2014-Oct-16 13:15N 53°32' E 006°38'1 0.8
2014-Oct-16 12:11N 53°33' E 006°39'914.0
2014-Oct-16 11:33N 53°27' E 006°50'2 0.9
2014-Oct-16 09:33N 53°28' E 006°48'6 2.8
2014-Oct-16 07:32N 53°32' E 006°40'2 0.6
2014-Oct-16 04:33N 53°33' E 006°43'7 6.9
2014-Oct-16 03:33N 53°27' E 006°50'7 0.6
2014-Oct-15 16:20N 53°33' E 006°44'7 8.4
2014-Oct-15 15:31N 53°27' E 006°50'7 6.6
2014-Oct-15 14:29N 53°31' E 006°41'7 7.0
2014-Oct-15 13:33N 53°27' E 006°49'9 8.7
2014-Oct-15 12:33N 53°32' E 006°38'9 8.5
2014-Oct-15 11:32N 53°27' E 006°49'7 1.2
2014-Oct-15 05:22N 53°34' E 006°45'0 0.0
2014-Oct-15 04:30N 53°34' E 006°45'8 8.0
2014-Oct-15 03:33N 53°27' E 006°50'9 1.7
2014-Oct-14 22:24N 53°33' E 006°40'2 2.7
2014-Oct-14 21:30N 53°31' E 006°42'2 1.7
2014-Oct-14 20:04N 53°33' E 006°40'816.5
2014-Oct-14 19:33N 53°27' E 006°50'7 2.3
2014-Oct-14 16:17N 53°33' E 006°43'7 9.7
2014-Oct-14 15:33N 53°27' E 006°50'9 1.5
2014-Oct-14 09:21N 53°33' E 006°38'2 2.1
2014-Oct-14 08:15N 53°31' E 006°40'0 0.0
2014-Oct-14 07:33N 53°31' E 006°40'7 6.2
2014-Oct-14 06:28N 53°27' E 006°49'7 3.3
2014-Oct-14 04:24N 53°33' E 006°43'7 8.3
2014-Oct-14 03:33N 53°27' E 006°50'9 2.8
2014-Oct-14 00:11N 53°33' E 006°38'0 0.0
2014-Oct-13 23:32N 53°33' E 006°38'0 0.0
2014-Oct-13 22:32N 53°33' E 006°38'0 0.0
2014-Oct-13 21:32N 53°33' E 006°38'0 0.0
2014-Oct-13 20:32N 53°33' E 006°38'4 0.9
2014-Oct-13 16:18N 53°32' E 006°44'2 0.2
2014-Oct-13 08:11N 53°34' E 006°45'5 8.8
2014-Oct-13 07:34N 53°29' E 006°49'6 1.8
2014-Oct-13 04:29N 53°33' E 006°43'7 7.9
2014-Oct-13 03:33N 53°27' E 006°50'8 2.4
2014-Oct-13 00:27N 53°34' E 006°45'4 1.4
2014-Oct-12 21:21N 53°32' E 006°38'6 8.1
2014-Oct-12 20:33N 53°29' E 006°47'5 1.2
2014-Oct-12 16:25N 53°34' E 006°45'4 0.8
2014-Oct-12 11:33N 53°30' E 006°42'3 2.5
2014-Oct-12 10:12N 53°33' E 006°38'1 1.3
2014-Oct-12 09:13N 53°32' E 006°40'810.9
2014-Oct-12 08:31N 53°27' E 006°49'0 0.2
2014-Oct-12 07:33N 53°27' E 006°49'9 3.5
2014-Oct-12 05:05N 53°33' E 006°38'3 4.4
2014-Oct-12 04:25N 53°33' E 006°43'6 6.9
2014-Oct-12 03:33N 53°28' E 006°49'7 1.1
2014-Oct-11 21:25N 53°32' E 006°40'2 1.4
2014-Oct-11 20:13N 53°33' E 006°38'3 0.8
2014-Oct-11 16:28N 53°33' E 006°43'8 8.3
2014-Oct-11 15:33N 53°27' E 006°50'9 2.9
2014-Oct-11 12:26N 53°33' E 006°38'2 1.5
2014-Oct-11 11:23N 53°32' E 006°40'5 5.7
2014-Oct-11 10:33N 53°29' E 006°47'1 1.4
2014-Oct-11 09:33N 53°28' E 006°49'0 0.0
2014-Oct-11 08:33N 53°28' E 006°49'0 0.3
2014-Oct-11 07:33N 53°28' E 006°49'1 1.4
2014-Oct-11 06:29N 53°27' E 006°49'8 7.0
2014-Oct-11 05:18N 53°33' E 006°40'6 7.2
2014-Oct-11 04:32N 53°30' E 006°48'  
Track history (hours):
 
Tides and Currents Weather Stations Pressure Air Temp Water Temp Dewpoint Dewpoint Depression Visibility Wind Speed Wind Dir Waves Ship Positions

Coral Electra

Last reported at 2014-Oct-21 03:34 UTC. Time now 2014-Oct-21 03:47 UTC.
Position N 53°27' E 006°50'.

Length 14 m; draft 2 m.

Type: Port tender. MMSI: 244690019.

Date/timePositionNaut miles runAvg speedWind from/ knotsBaromVisibWave heightAir tempDewpointWater temp
2014-Oct-21 03:34N 53°27' E 006°50'0 0.0
2014-Oct-21 02:34N 53°27' E 006°50'0 0.0
2014-Oct-21 01:22N 53°27' E 006°50'0 0.0
2014-Oct-21 00:33N 53°27' E 006°50'0 0.0
2014-Oct-20 23:33N 53°27' E 006°50'0 0.0
2014-Oct-20 22:34N 53°27' E 006°50'0 0.0
2014-Oct-20 21:31N 53°27' E 006°50'0 0.0
2014-Oct-20 20:31N 53°27' E 006°50'0 0.0
2014-Oct-20 19:30N 53°27' E 006°50'0 0.0
2014-Oct-20 18:33N 53°27' E 006°50'0 0.0
2014-Oct-20 17:33N 53°27' E 006°50'0 0.0
2014-Oct-20 16:33N 53°27' E 006°50'0 0.0
2014-Oct-20 15:24N 53°27' E 006°50'0 0.0
2014-Oct-20 14:34N 53°27' E 006°50'0 0.0
2014-Oct-20 13:33N 53°27' E 006°50'0 0.0
2014-Oct-20 12:30N 53°27' E 006°50'0 0.0
2014-Oct-20 11:33N 53°27' E 006°50'0 0.0
2014-Oct-20 10:33N 53°27' E 006°50'0 0.1
2014-Oct-20 09:33N 53°27' E 006°50'9 4.3
2014-Oct-20 07:30N 53°32' E 006°38'1 0.9
2014-Oct-20 06:17N 53°32' E 006°40'810.9
2014-Oct-20 05:33N 53°27' E 006°50'1 0.9
2014-Oct-20 04:33N 53°27' E 006°50'0 0.0
2014-Oct-20 03:30N 53°27' E 006°50'0 0.0
2014-Oct-20 02:33N 53°27' E 006°50'0 0.0
2014-Oct-20 01:33N 53°27' E 006°50'0 0.0
2014-Oct-20 00:33N 53°27' E 006°50'0 0.0
2014-Oct-19 23:33N 53°27' E 006°50'0 0.0
2014-Oct-19 22:33N 53°27' E 006°50'0 0.0
2014-Oct-19 21:33N 53°27' E 006°50'0 0.0
2014-Oct-19 20:27N 53°27' E 006°50'0 0.0
2014-Oct-19 19:33N 53°27' E 006°50'0 0.0
2014-Oct-19 18:30N 53°27' E 006°50'0 0.0
2014-Oct-19 17:30N 53°27' E 006°50'0 0.0
2014-Oct-19 16:33N 53°27' E 006°50'0 0.0
2014-Oct-19 15:33N 53°27' E 006°50'0 0.0
2014-Oct-19 14:30N 53°27' E 006°50'0 0.0
2014-Oct-19 13:33N 53°27' E 006°50'0 0.0
2014-Oct-19 12:27N 53°27' E 006°50'0 0.0
2014-Oct-19 11:33N 53°27' E 006°50'0 0.0
2014-Oct-19 10:33N 53°27' E 006°50'0 0.0
2014-Oct-19 09:33N 53°27' E 006°50'0 0.0
2014-Oct-19 08:33N 53°27' E 006°50'0 0.0
2014-Oct-19 07:33N 53°27' E 006°50'9 7.3
2014-Oct-19 06:20N 53°32' E 006°38'911.4
2014-Oct-19 05:33N 53°27' E 006°50'7 6.1
2014-Oct-19 04:20N 53°34' E 006°45'7 9.2
2014-Oct-19 03:31N 53°27' E 006°50'0 0.0
2014-Oct-19 02:31N 53°27' E 006°50'0 0.0
2014-Oct-19 01:31N 53°27' E 006°50'0 0.0
2014-Oct-19 00:31N 53°27' E 006°50'0 0.3
2014-Oct-18 23:31N 53°27' E 006°49'9 2.6
2014-Oct-18 20:03N 53°33' E 006°39'918.0
2014-Oct-18 19:33N 53°27' E 006°50'7 3.0
2014-Oct-18 17:14N 53°34' E 006°45'2 3.0
2014-Oct-18 16:33N 53°33' E 006°42'8 8.1
2014-Oct-18 15:33N 53°27' E 006°50'3 3.5
2014-Oct-18 14:33N 53°29' E 006°45'3 2.9
2014-Oct-18 13:22N 53°27' E 006°50'0 0.0
2014-Oct-18 12:31N 53°27' E 006°50'0 0.0
2014-Oct-18 11:28N 53°27' E 006°50'0 0.0
2014-Oct-18 10:31N 53°27' E 006°50'0 0.3
2014-Oct-18 09:33N 53°27' E 006°49'7 5.4
2014-Oct-18 08:17N 53°31' E 006°41'7 9.2
2014-Oct-18 07:32N 53°27' E 006°49'5 1.8
2014-Oct-18 04:32N 53°32' E 006°45'5 1.6
2014-Oct-18 01:33N 53°33' E 006°37'7 7.4
2014-Oct-18 00:33N 53°28' E 006°48'7 6.8
2014-Oct-17 23:30N 53°33' E 006°38'3 2.9
2014-Oct-17 22:33N 53°31' E 006°41'3 0.7
2014-Oct-17 17:31N 53°34' E 006°45'0 0.2
2014-Oct-17 16:31N 53°34' E 006°45'4 1.1
2014-Oct-17 12:30N 53°32' E 006°38'4 3.2
2014-Oct-17 11:08N 53°32' E 006°45'6 8.7
2014-Oct-17 10:30N 53°27' E 006°50'6 1.7
2014-Oct-17 07:07N 53°30' E 006°42'4 7.1
2014-Oct-17 06:31N 53°29' E 006°49'4 2.0
2014-Oct-17 04:33N 53°32' E 006°45'6 5.8
2014-Oct-17 03:32N 53°27' E 006°50'9 2.9
2014-Oct-17 00:21N 53°33' E 006°37'0 0.0
2014-Oct-16 23:21N 53°33' E 006°37'0 0.0
2014-Oct-16 22:18N 53°33' E 006°37'3 0.8
2014-Oct-16 18:24N 53°33' E 006°43'1 1.3
2014-Oct-16 17:13N 53°34' E 006°45'3 4.5
2014-Oct-16 16:33N 53°33' E 006°40'9 8.4
2014-Oct-16 15:32N 53°27' E 006°50'0 0.2
2014-Oct-16 14:33N 53°27' E 006°49'9 6.6
2014-Oct-16 13:15N 53°32' E 006°38'1 0.8
2014-Oct-16 12:11N 53°33' E 006°39'914.0
2014-Oct-16 11:33N 53°27' E 006°50'2 0.9
2014-Oct-16 09:33N 53°28' E 006°48'6 2.8
2014-Oct-16 07:32N 53°32' E 006°40'2 0.6
2014-Oct-16 04:33N 53°33' E 006°43'7 6.9
2014-Oct-16 03:33N 53°27' E 006°50'7 0.6
2014-Oct-15 16:20N 53°33' E 006°44'7 8.4
2014-Oct-15 15:31N 53°27' E 006°50'7 6.6
2014-Oct-15 14:29N 53°31' E 006°41'7 7.0
2014-Oct-15 13:33N 53°27' E 006°49'9 8.7
2014-Oct-15 12:33N 53°32' E 006°38'9 8.5
2014-Oct-15 11:32N 53°27' E 006°49'7 1.2
2014-Oct-15 05:22N 53°34' E 006°45'0 0.0
2014-Oct-15 04:30N 53°34' E 006°45'8 8.0
2014-Oct-15 03:33N 53°27' E 006°50'9 1.7
2014-Oct-14 22:24N 53°33' E 006°40'2 2.7
2014-Oct-14 21:30N 53°31' E 006°42'2 1.7
2014-Oct-14 20:04N 53°33' E 006°40'816.5
2014-Oct-14 19:33N 53°27' E 006°50'7 2.3
2014-Oct-14 16:17N 53°33' E 006°43'7 9.7
2014-Oct-14 15:33N 53°27' E 006°50'9 1.5
2014-Oct-14 09:21N 53°33' E 006°38'2 2.1
2014-Oct-14 08:15N 53°31' E 006°40'0 0.0
2014-Oct-14 07:33N 53°31' E 006°40'7 6.2
2014-Oct-14 06:28N 53°27' E 006°49'7 3.3
2014-Oct-14 04:24N 53°33' E 006°43'7 8.3
2014-Oct-14 03:33N 53°27' E 006°50'9 2.8
2014-Oct-14 00:11N 53°33' E 006°38'0 0.0
2014-Oct-13 23:32N 53°33' E 006°38'0 0.0
2014-Oct-13 22:32N 53°33' E 006°38'0 0.0
2014-Oct-13 21:32N 53°33' E 006°38'0 0.0
2014-Oct-13 20:32N 53°33' E 006°38'4 0.9
2014-Oct-13 16:18N 53°32' E 006°44'2 0.2
2014-Oct-13 08:11N 53°34' E 006°45'5 8.8
2014-Oct-13 07:34N 53°29' E 006°49'6 1.8
2014-Oct-13 04:29N 53°33' E 006°43'7 7.9
2014-Oct-13 03:33N 53°27' E 006°50'8 2.4
2014-Oct-13 00:27N 53°34' E 006°45'4 1.4
2014-Oct-12 21:21N 53°32' E 006°38'6 8.1
2014-Oct-12 20:33N 53°29' E 006°47'5 1.2
2014-Oct-12 16:25N 53°34' E 006°45'4 0.8
2014-Oct-12 11:33N 53°30' E 006°42'3 2.5
2014-Oct-12 10:12N 53°33' E 006°38'1 1.3
2014-Oct-12 09:13N 53°32' E 006°40'810.9
2014-Oct-12 08:31N 53°27' E 006°49'0 0.2
2014-Oct-12 07:33N 53°27' E 006°49'9 3.5
2014-Oct-12 05:05N 53°33' E 006°38'3 4.4
2014-Oct-12 04:25N 53°33' E 006°43'6 6.9
2014-Oct-12 03:33N 53°28' E 006°49'7 1.1
2014-Oct-11 21:25N 53°32' E 006°40'2 1.4
2014-Oct-11 20:13N 53°33' E 006°38'3 0.8
2014-Oct-11 16:28N 53°33' E 006°43'8 8.3
2014-Oct-11 15:33N 53°27' E 006°50'9 2.9
2014-Oct-11 12:26N 53°33' E 006°38'2 1.5
2014-Oct-11 11:23N 53°32' E 006°40'5 5.7
2014-Oct-11 10:33N 53°29' E 006°47'1 1.4
2014-Oct-11 09:33N 53°28' E 006°49'0 0.0
2014-Oct-11 08:33N 53°28' E 006°49'0 0.3
2014-Oct-11 07:33N 53°28' E 006°49'1 1.4
2014-Oct-11 06:29N 53°27' E 006°49'8 7.0
2014-Oct-11 05:18N 53°33' E 006°40'6 7.2
2014-Oct-11 04:32N 53°30' E 006°48'  

Dump ship's entire track history